Location: Oberstdorf
(47.4188°N, 10.2969°E)
Time: 21:30:23
(UTC+01:00)

ISS - Pass Details

Date: 30 October 2019
Orbit: 412 x 421 km, 51.6° (Epoch: 23 November)

Event Time Altitude Azimuth Distance (km) Brightness Sun altitude
Exits shadow 05:43:53 24° 270° (W) 916 -2.7 -13.2°
Maximum altitude 05:45:42 59° 342° (NNW) 495 -3.6 -12.8°
Drops below altitude 10° 05:49:03 10° 63° (ENE) 1,509 0.0 -12.3°
Sets 05:51:11 0° 67° (ENE) 2,374 1.2 -11.9°
